Location: Ripley
(48.3812°N, 115.4473°W)
Time: 21:10:25
(UTC+00:00)

Gurwin Techsat 1B - Visible Passes

Search period start: 28 June 2022 00:00
Search period end: 08 July 2022 00:00
Orbit: 811 x 814 km, 98.8° (Epoch: 28 June)

Date Brightness Start Highest point End Pass type
(mag) Time Alt. Az. Time Alt. Az. Time Alt. Az.
28 Jun 9.4 09:56:11 10° NNE 10:01:21 48° E 10:06:28 10° S visible
29 Jun 10.0 09:33:32 10° NNE 09:38:16 31° E 09:42:57 10° SSE visible
30 Jun 10.6 09:11:08 10° NE 09:15:05 21° E 09:19:01 10° SE visible
30 Jun 8.8 10:50:11 10° N 10:55:27 64° WNW 11:00:41 10° SSW visible
01 Jul 11.0 08:49:21 10° ENE 08:51:50 13° E 08:54:18 10° ESE visible
01 Jul 8.7 10:27:10 10° NNE 10:32:32 85° ESE 10:37:52 10° SSW visible
02 Jul 9.1 10:04:18 10° NNE 10:09:33 56° E 10:14:46 10° S visible
03 Jul 9.8 09:41:34 10° NNE 09:46:29 36° E 09:51:21 10° SSE visible
04 Jul 10.4 09:19:04 10° NE 09:23:21 24° E 09:27:35 10° SE visible
04 Jul 8.9 10:58:23 10° N 11:03:35 55° WNW 11:08:45 10° SW visible
05 Jul 10.9 08:56:59 10° NE 09:00:07 16° E 09:03:13 10° SE visible
05 Jul 8.7 10:35:21 10° NNE 10:40:42 83° WNW 10:46:02 10° SSW visible
06 Jul 8.9 10:12:26 10° NNE 10:17:45 65° ESE 10:23:01 10° S visible
07 Jul 9.6 09:49:39 10° NNE 09:54:42 42° E 09:59:44 10° S visible
